Location: Ciserano
(45.5833°N, 9.6000°E)
Time: 01:12:33
(UTC+00:00)

FALCON 9 DEB - Pass Details

Date: 18 April 2021
Orbit: 369 x 385 km, 53.0° (Epoch: 10 May)

Event Time Altitude Azimuth Distance (km) Brightness Sun altitude
Exits shadow 02:23:23 25° 330° (NNW) 804 4.5 -20.3°
Maximum altitude 02:24:41 39° 23° (NNE) 575 4.2 -20.1°
Drops below altitude 10° 02:27:38 10° 95° (E) 1,385 6.3 -19.7°
Sets 02:29:45 0° 103° (ESE) 2,238 7.3 -19.4°
